This is the latest recevied weather packets stored in our database for station/object N3OZD-10. If no packets are shown the sender has not sent any weather packets the latest 10 day(s).
| Time | Temp. | Humidity | Pressure | Rain* | Wind** | Luminosity | Snow |
|---|---|---|---|---|---|---|---|
| 1778137941 | 11.67° C | 92% | 1010.2 hPa | 0.25 mm | - | - | - |
| 1778137641 | 11.67° C | 91% | 1010.2 hPa | 0.25 mm | - | - | - |
| 1778137345 | 11.67° C | 91% | 1010.2 hPa | 0.25 mm | - | - | - |
| 1778137041 | 11.67° C | 90% | 1010.2 hPa | 0.25 mm | - | - | - |
| 1778136741 | 11.67° C | 90% | 1010.3 hPa | 0.25 mm | - | - | - |
| 1778136141 | 12.22° C | 92% | 1010.1 hPa | 0.25 mm | - | - | - |
| 1778135841 | 12.22° C | 92% | 1010 hPa | 0 mm | - | - | - |
| 1778135541 | 12.22° C | 92% | 1010.3 hPa | 0 mm | - | - | - |
| 1778135241 | 12.22° C | 92% | 1010.1 hPa | 0 mm | - | - | - |
| 1778134941 | 12.78° C | 94% | 1010.1 hPa | 0 mm | - | - | - |
| 1778134642 | 12.78° C | 94% | 1010.1 hPa | 0 mm | - | - | - |
| 1778134341 | 12.78° C | 95% | 1010 hPa | 0.25 mm | - | - | - |
| 1778134042 | 12.78° C | 95% | 1010 hPa | 0.51 mm | - | - | - |
| 1778133745 | 12.78° C | 95% | 1010.6 hPa | 0.76 mm | - | - | - |
| 1778133441 | 12.78° C | 95% | 1010.5 hPa | 0.76 mm | - | - | - |
| 1778133143 | 12.78° C | 95% | 1010.3 hPa | 0.76 mm | - | - | - |
| 1778132841 | 13.33° C | 95% | 1010.2 hPa | 0.76 mm | - | - | - |
| 1778132541 | 13.33° C | 95% | 1009.9 hPa | 0.76 mm | - | - | - |
| 1778132241 | 12.78° C | 95% | 1010.2 hPa | 0.76 mm | - | - | - |
| 1778131941 | 13.33° C | 95% | 1010.3 hPa | 1.27 mm | - | - | - |
| 1778131641 | 13.33° C | 94% | 1010.2 hPa | 1.27 mm | - | - | - |
| 1778131342 | 13.33° C | 94% | 1010.4 hPa | 1.27 mm | - | - | - |
| 1778131045 | 13.33° C | 94% | 1010.3 hPa | 1.27 mm | - | - | - |
| 1778130742 | 13.33° C | 93% | 1010.2 hPa | 0.76 mm | - | - | - |
| 1778130441 | 13.33° C | 92% | 1010.4 hPa | 0.76 mm | - | - | - |
* Rain latest hour (hover to see other rain measurements)
** Current wind speed in m/s (hover to see current wind gust speed)